#timestamp,LO_Frequency,Hit,StdDev 
1608084015.5,286047004.0,N
1608084035.4,286046998.6,N
1608084055.2,286047000.8,N
1608084075.1,286047000.3,N
1608084076.0,286047000.3,N
1608084095.8,286047004.1,N
1608084115.6,286047005.3,N
1608084135.5,286047004.3,N
1608084155.3,286047003.7,N
1608084175.1,286047005.6,N
1608084195.9,286047001.5,N
1608084215.7,286047006.4,N
1608084235.6,286047007.8,N
1608084255.4,286047009.9,N
1608084275.2,286047011.5,Y
1608084295.1,286047002.9,P
1608084296.0,286047002.9,P
1608084315.8,286047000.7,N
1608084335.7,286047003.6,N
1608084355.5,286047009.2,Y
1608084375.3,286047003.3,P
1608084395.2,286047001.2,P
1608084415.0,286047001.4,N
1608084415.9,286047001.4,N
1608084435.7,286047005.4,Y
1608084455.6,286047000.5,P
1608084475.4,286046998.6,N
1608084495.3,286046999.3,N
1608084515.1,286047000.8,N
1608084516.0,286047000.8,N
1608084535.8,286047000.1,N
1608084555.7,286046999.6,N
1608084575.5,286046995.3,Y
1608084595.4,286046996.0,P
1608084615.2,286046993.6,P
1608084635.0,286046992.8,N
1608084635.9,286046992.8,N
1608084655.8,286046990.5,Y
1608084675.6,286046999.7,P
1608084695.4,286046998.9,N
1608084715.3,286046997.9,N
1608084735.1,286046995.0,N
1608084755.9,286047000.1,N
1608084775.7,286047002.3,N
1608084795.5,286046998.8,N
1608084815.4,286046999.6,N
1608084835.2,286047002.5,N
1608084855.0,286046998.7,N
1608084855.9,286046998.7,N
1608084875.8,286046996.5,N
1608084895.6,286046998.2,N
1608084915.5,286047002.2,N
1608084935.3,286046999.3,N
1608084955.1,286046998.5,N
1608084975.9,286047000.1,N
1608084995.7,286047002.3,N
1608085015.5,286047005.2,N
1608085035.4,286047005.9,N
1608085055.2,286047005.2,N
1608085075.1,286047006.3,N
1608085076.0,286047006.3,N
1608085095.8,286047002.2,N
1608085115.6,286046999.1,N
1608085135.5,286046999.5,N
1608085155.3,286046997.7,N
1608085175.2,286046997.6,N
1608085195.9,286046997.3,N
1608085215.7,286047000.8,N
1608085235.6,286047001.6,N
1608085255.4,286047002.3,N
1608085275.3,286046998.5,N
1608085295.1,286046999.9,N
1608085296.0,286046999.9,N
1608085315.8,286047007.2,N
1608085335.7,286047006.4,N
1608085355.5,286047007.2,N
1608085375.3,286047004.4,N
1608085395.2,286047000.3,N
1608085415.0,286047005.5,N
1608085415.9,286047005.5,N
1608085435.8,286047007.5,N
1608085455.6,286047003.6,N
1608085475.4,286046999.9,N
1608085495.3,286046999.0,N
1608085515.1,286046996.5,N
1608085535.8,286046997.3,N
1608085555.7,286046997.0,N
1608085575.5,286046999.3,N
1608085595.4,286047001.7,N
1608085615.2,286047005.9,N
1608085635.0,286047003.0,N
1608085635.9,286047003.0,N
1608085655.8,286047003.9,N
1608085675.6,286047003.2,N
1608085695.5,286047004.2,N
1608085715.3,286047003.6,N
1608085735.1,286047001.3,N
1608085755.9,286046998.5,N
1608085775.7,286046999.3,N
1608085795.5,286046999.9,N
1608085815.4,286047005.7,N
1608085835.2,286047007.1,N
1608085855.1,286047002.6,N
1608085856.0,286047002.6,N
1608085875.8,286047000.1,N
1608085895.6,286047004.2,N
1608085915.5,286047003.3,N
1608085935.3,286047003.4,N
1608085955.1,286047007.4,N
1608085975.9,286047007.3,N
1608085995.7,286047004.6,N
1608086015.6,286047002.4,N
1608086035.4,286046998.5,N
1608086055.2,286046998.2,N
1608086075.1,286046998.5,N
1608086076.0,286046998.5,N
1608086095.8,286046998.6,N
1608086115.6,286047000.5,N
1608086135.5,286047003.6,N
1608086155.3,286046999.8,N
1608086175.2,286046998.2,N
1608086195.9,286047002.1,N
1608086215.7,286047005.8,N
1608086235.6,286047002.2,N
1608086255.4,286047004.4,N
1608086275.2,286047003.4,N
1608086295.1,286047003.2,N
1608086296.0,286047003.2,N
1608086315.8,286047002.1,N
1608086335.7,286047004.6,N
1608086355.5,286047008.5,Y
1608086375.3,286047008.5,P
1608086395.2,286047007.5,N
1608086415.0,286047005.6,N
1608086415.9,286047005.6,N
1608086435.8,286047004.7,N
1608086455.6,286047007.2,Y
1608086475.4,286046999.1,P
1608086495.3,286046999.1,N
1608086515.1,286047003.1,N
1608086535.8,286047000.3,N
1608086555.7,286046998.3,N
1608086575.5,286046995.3,N
1608086595.4,286046995.1,N
1608086615.2,286046994.7,N
1608086635.0,286047000.6,N
1608086635.9,286047000.6,N
1608086655.8,286046999.9,N
1608086675.6,286046997.5,N
1608086695.4,286046996.2,N
1608086715.3,286047002.3,N
1608086735.1,286047001.3,N
1608086755.9,286047005.6,N
1608086775.7,286047004.6,N
1608086795.5,286047000.5,N
1608086815.4,286047000.2,N
1608086835.2,286046998.3,N
1608086855.0,286046995.5,N
1608086855.9,286046995.5,N
1608086875.8,286046997.7,N
1608086895.6,286046999.3,N
1608086915.5,286046995.0,N
1608086935.3,286046998.8,N
1608086955.1,286047003.0,N
1608086975.9,286046998.8,N
1608086995.7,286046995.0,N
1608087015.5,286046996.3,N
1608087035.4,286046998.6,N
1608087055.2,286046997.9,N
1608087075.1,286047001.2,N
1608087076.0,286047001.2,N
1608087095.8,286046995.1,N
1608087115.6,286046996.4,N
1608087135.5,286047000.4,N
1608087155.3,286046997.7,N
1608087175.2,286046995.2,N
1608087195.9,286046998.5,N
1608087215.7,286046997.4,N
1608087235.6,286046996.0,N
1608087255.4,286046997.5,N
1608087275.2,286046999.1,N
1608087295.1,286047000.2,N
1608087296.0,286047000.2,N
1608087315.8,286047003.8,N
1608087335.7,286046999.0,N
1608087355.5,286047003.4,N
1608087375.3,286047005.0,N
1608087395.2,286047004.7,N
1608087415.0,286047005.3,N
1608087415.9,286047005.3,N
1608087435.8,286047003.0,N
1608087455.6,286047000.6,N
1608087475.4,286046998.3,N
1608087495.3,286047000.6,N
1608087515.1,286047004.4,N
1608087535.8,286047000.0,N
1608087555.7,286046997.3,N
1608087575.5,286047001.4,N
1608087595.4,286047002.6,N
